Location: Fontevrault
(47.1823°N, 0.0493°E)
Time: 14:09:35
(UTC+00:00)

Cosmos 1725 Rocket - Visible Passes

Search period start: 22 October 2021 00:00
Search period end: 01 November 2021 00:00
Orbit: 961 x 991 km, 82.9° (Epoch: 21 October)

Date Brightness Start Highest point End Pass type
(mag) Time Alt. Az. Time Alt. Az. Time Alt. Az.
22 Oct 6.0 20:24:10 17° N 20:24:10 17° N 20:25:24 10° N visible
22 Oct 6.6 22:08:49 12° NNW 22:08:49 12° NNW 22:09:38 10° NNW visible
23 Oct 6.6 05:21:56 10° NNE 05:25:15 15° ENE 05:28:33 10° E visible
23 Oct 6.1 19:04:42 10° NNE 19:04:42 10° NNE 19:04:45 10° NNE visible
23 Oct 6.0 20:49:22 19° N 20:49:22 19° N 20:50:59 10° N visible
24 Oct 6.3 05:46:28 10° NNE 05:51:26 24° ENE 05:56:22 10° ESE visible
24 Oct 5.8 19:29:50 16° NNE 19:29:50 16° NNE 19:30:58 10° NNE visible
24 Oct 6.1 21:14:29 19° NNW 21:14:29 19° NNW 21:16:19 10° N visible
25 Oct 5.6 19:54:52 21° NNE 19:54:52 21° NNE 19:56:50 10° NNE visible
25 Oct 6.4 21:39:31 16° NNW 21:39:31 16° NNW 21:41:19 10° NNW visible
26 Oct 6.7 04:53:52 10° NNE 04:56:33 13° ENE 04:59:11 10° E visible
26 Oct 5.8 18:35:08 13° NE 18:35:08 13° NE 18:35:58 10° NE visible
26 Oct 5.5 20:19:46 27° N 20:19:46 27° N 20:22:26 10° N visible
26 Oct 6.7 22:04:24 12° NW 22:04:24 12° NW 22:05:27 10° NNW visible
27 Oct 6.4 05:18:06 10° NNE 05:22:46 22° ENE 05:27:24 10° ESE visible
27 Oct 5.3 18:59:50 23° NE 18:59:50 23° NE 19:02:18 10° NNE visible
27 Oct 5.5 20:44:26 29° NNW 20:44:26 29° NNW 20:47:51 10° N visible
28 Oct 5.7 05:43:07 10° N 05:48:47 36° ENE 05:54:25 10° SE visible
28 Oct 4.4 19:16:00 10° S 19:23:54 45° NE 19:28:14 10° NNE visible
28 Oct 5.9 21:08:25 24° WNW 21:08:25 24° WNW 21:12:56 10° NNW visible
29 Oct 6.9 04:26:04 10° NE 04:27:48 11° NE 04:29:32 10° ENE visible
29 Oct 5.1 17:58:55 10° ESE 18:03:01 19° E 18:07:08 10° NE visible
29 Oct 4.0 19:41:29 10° SSW 19:47:41 76° W 19:53:54 10° N visible
29 Oct 6.5 21:31:03 10° W 21:34:13 14° WNW 21:37:24 10° NNW visible
30 Oct 6.5 04:49:46 10° NNE 04:54:05 19° ENE 04:58:23 10° ESE visible
30 Oct 4.5 18:22:50 10° SSE 18:28:13 32° E 18:33:37 10° NNE visible
30 Oct 4.9 20:07:32 10° SW 20:13:26 45° WNW 20:19:22 10° N visible
31 Oct 5.8 05:14:40 10° N 05:20:09 32° ENE 05:25:37 10° SE visible
31 Oct 4.0 18:47:34 10° SSE 18:53:36 56° E 18:59:37 10° NNE visible
31 Oct 5.8 20:34:13 10° SW 20:39:23 27° WNW 20:44:33 10° N visible
